Weather History for KNYL - September, 2012

Change the Weather History Date:

Monday, September 17, 2012

  Actual Average Record
Temperature  
Mean Temperature 90 °F 89 °F  
Max Temperature 101 °F 101 °F 114 °F (1956)
Min Temperature 79 °F 77 °F 54 °F (1893)
Degree Days  
Heating Degree Days 0 0  
Month to date heating degree days 0 0  
Since 1 July heating degree days 0 0  
Cooling Degree Days 25 24  
Month to date cooling degree days 445 446  
Year to date cooling degree days 4001 3899  
Growing Degree Days 40 (Base 50)    
Moisture  
Dew Point 60 °F    
Average Humidity 46    
Maximum Humidity 79    
Minimum Humidity 13    
Precipitation  
Precipitation 0.00 in 0.02 in 2.42 in (1963)
Month to date precipitation 0.31 0.32  
Year to date precipitation 2.34 2.41  
Sea Level Pressure  
Sea Level Pressure 29.86 in    
Wind  
Wind Speed 6 mph (South)    
Max Wind Speed 14 mph    
Max Gust Speed 15 mph    
Visibility 10 miles    
Events      
T = Trace of Precipitation, MM = Missing Value Source: NWS Daily Summary

Daily Weather History Graph

Daily Weather History Graph

Search for Another Location

Airport or City:

Trip Planner

Search our weather history database for the weather conditions in past years. The results will help you decide how hot, cold, wet, or windy it might be!

Date:

Astronomy

Sep. 17, 2012 Rise Set
Actual Time 6:23 AM MST 6:41 PM MST
Civil Twilight 5:59 AM MST 7:05 PM MST
Nautical Twilight 5:30 AM MST 7:34 PM MST
Astronomical Twilight 5:01 AM MST 8:03 PM MST
Moon 8:07 AM MST (9/17) 7:37 PM MST (9/17)
Length of Visible Light 13h 06m
Length of Day
12h 17m
Waxing Crescent, 4% of the Moon is Illuminated
Sep 17
Waxing Crescent
Sep 22
First Quarter
Sep 29
Full
Oct 8
Last Quarter
Oct 15
New

Hourly Weather History & Observations

Time (MST) Temp. Heat Index Dew Point Humidity Pressure Visibility Wind Dir Wind Speed Gust Speed Precip Events Conditions
12:55 AM 82.0 °F 84.9 °F 68.0 °F 62% 29.89 in 10.0 mi SSE 5.8 mph - N/A   Clear
1:55 AM 82.0 °F 85.5 °F 69.1 °F 65% 29.89 in 10.0 mi South 3.5 mph - N/A   Clear
2:55 AM 80.1 °F 82.9 °F 69.1 °F 69% 29.87 in 10.0 mi SSE 3.5 mph - N/A   Clear
3:55 AM 80.1 °F 83.2 °F 70.0 °F 71% 29.87 in 10.0 mi Calm Calm - N/A   Clear
4:55 AM 80.1 °F 83.6 °F 71.1 °F 74% 29.88 in 10.0 mi Calm Calm - N/A   Clear
5:55 AM 79.0 °F - 72.0 °F 79% 29.88 in 10.0 mi SSE 4.6 mph - N/A   Clear
6:55 AM 79.0 °F - 71.1 °F 77% 29.90 in 10.0 mi SSE 3.5 mph - N/A   Partly Cloudy
7:55 AM 82.0 °F 87.4 °F 73.0 °F 74% 29.92 in 10.0 mi SSE 9.2 mph - N/A   Partly Cloudy
8:55 AM 84.9 °F 91.4 °F 73.0 °F 67% 29.93 in 10.0 mi South 9.2 mph - N/A   Partly Cloudy
9:55 AM 89.1 °F 90.0 °F 63.0 °F 42% 29.93 in 10.0 mi Variable 5.8 mph - N/A   Partly Cloudy
10:55 AM 91.0 °F 92.6 °F 64.0 °F 41% 29.92 in 10.0 mi Variable 3.5 mph - N/A   Partly Cloudy
11:55 AM 93.0 °F 92.3 °F 59.0 °F 32% 29.90 in 10.0 mi Calm Calm - N/A   Partly Cloudy
12:55 PM 96.1 °F 94.5 °F 55.9 °F 26% 29.87 in 10.0 mi South 5.8 mph - N/A   Partly Cloudy
1:55 PM 99.0 °F - 50.0 °F 19% 29.85 in 10.0 mi Variable 5.8 mph - N/A   Scattered Clouds
2:55 PM 100.0 °F - 48.0 °F 17% 29.82 in 10.0 mi SSW 9.2 mph - N/A   Partly Cloudy
3:55 PM 100.9 °F - 43.0 °F 14% 29.80 in 10.0 mi SW 10.4 mph - N/A   Partly Cloudy
4:55 PM 100.0 °F - 41.0 °F 13% 29.80 in 10.0 mi SW 8.1 mph - N/A   Scattered Clouds
5:55 PM 99.0 °F - 45.0 °F 16% 29.80 in 10.0 mi South 8.1 mph - N/A   Partly Cloudy
6:55 PM 95.0 °F - 48.0 °F 20% 29.80 in 10.0 mi SSW 6.9 mph - N/A   Partly Cloudy
7:55 PM 91.9 °F - 48.0 °F 22% 29.81 in 10.0 mi South 6.9 mph - N/A   Partly Cloudy
8:55 PM 90.0 °F - 48.9 °F 24% 29.83 in 10.0 mi South 5.8 mph - N/A   Partly Cloudy
9:55 PM 84.9 °F 83.7 °F 55.9 °F 37% 29.84 in 10.0 mi SSW 6.9 mph - N/A   Partly Cloudy
10:55 PM 84.0 °F 87.0 °F 68.0 °F 58% 29.85 in 10.0 mi SSE 8.1 mph - N/A   Partly Cloudy
11:55 PM 82.9 °F 87.5 °F 71.1 °F 67% 29.85 in 10.0 mi South 5.8 mph - N/A   Partly Cloudy